Location: Hickory_Viewmont
(35.7830°N, 81.3170°W)
Time: 21:50:42
(UTC-05:00)

Daily predictions for brighter satellites

Satellite Brightness Start Highest point End
(mag) Time Altitude Azimuth Time Altitude Azimuth Time Altitude Azimuth
AQUARIUS 4.5 17:31:52 10° SE 17:36:07 44° ENE 17:40:24 10° N
NOSS 3-3 (A) 4.3 17:30:18 10° S 17:36:08 49° ESE 17:42:19 10° NE
NOSS 3-3 (C) 4.3 17:30:25 10° S 17:36:14 48° ESE 17:42:26 10° NE
USA 32 4.1 17:31:12 10° SSE 17:36:18 57° E 17:41:24 10° NNE
Ariane Rocket 4.4 17:31:47 10° S 17:36:36 44° W 17:41:27 10° NNW
ISS -1.2 17:35:45 10° W 17:38:17 20° NNW 17:40:49 10° NNE
SL-8 Rocket 4.0 17:35:10 10° N 17:41:17 63° E 17:47:22 10° SSE
Cosmos 1346 Rocket 4.3 17:38:46 10° SE 17:41:26 18° E 17:44:05 10° NE
IDEFIX/ARIANE 42P 2.6 17:39:19 10° SSE 17:44:23 57° ENE 17:49:28 10° N
CORIOLIS 4.3 17:39:37 10° SSE 17:44:51 52° ENE 17:50:04 10° N
Cosmos 1844 3.7 17:40:08 10° SSW 17:45:42 90° WNW 17:51:18 10° NNE
ATLAS 2AS CENTAUR R/B 3.1 17:39:45 10° NNW 17:47:39 55° NE 17:54:58 10° SE
Cosmos 494 Rocket 4.4 17:43:15 10° N 17:48:11 40° ENE 17:53:05 10° SE
Cosmos 1455 Rocket 3.4 17:46:04 10° N 17:50:17 43° E 17:54:30 10° SSE
BREEZE-M DEB (TANK) 3.4 17:44:55 10° NW 17:51:17 88° SW 17:54:54 10° SE
Cosmos 2366 rocket 4.1 17:46:19 10° N 17:52:33 56° E 17:58:42 10° SSE
CZ-3B DEB 2.1 17:50:11 10° WSW 17:53:17 60° NW 18:00:57 10° NE
Cosmos 1959 Rocket 4.5 17:50:06 10° N 17:56:17 70° E 18:02:30 10° SSE
MSX 4.0 17:51:34 10° SSE 17:57:06 51° ENE 18:02:39 10° N
Cosmos 2218 Rocket 4.0 17:50:56 10° N 17:57:13 71° E 18:03:22 10° SSE
Delta 2 Rocket 4.2 17:53:58 10° SW 17:57:25 36° SSE 18:00:59 12° E
CZ-4 R/B 1.9 17:57:10 10° S 18:01:20 68° W 18:05:29 10° NNW
Cosmos 2278 Rocket 2.2 17:56:34 10° SSW 18:02:11 74° ESE 18:07:51 10° NNE
SMAP 3.0 17:57:36 10° SSE 18:02:15 88° ENE 18:06:55 10° NNW
Thor Agena Rocket 3.9 17:58:25 10° N 18:03:37 71° WNW 18:08:50 10° SSW
Cosmos 1238 Rocket 2.2 18:02:54 10° S 18:05:52 74° W 18:08:50 10° N
SL-24 DEB 4.4 18:01:37 10° NNE 18:06:15 52° E 18:10:48 10° S
SJ-12 4.3 18:02:31 10° S 18:06:34 70° WSW 18:10:41 10° NNW
OTV 4 1.8 18:04:45 10° W 18:07:34 37° SSW 18:10:22 10° SE
CZ-2C R/B 2.6 18:03:32 10° S 18:08:28 79° WSW 18:13:34 10° NNW
MONITOR-E 4.4 18:08:24 10° SSE 18:11:29 49° ENE 18:14:35 10° N
Cosmos 1975 3.0 18:08:41 10° N 18:12:38 49° E 18:16:32 10° SSE
COSMOS 2406 4.5 18:07:36 10° NW 18:13:03 46° WSW 18:18:30 10° S
Meteor 1-12 Rocket 4.3 18:07:45 10° N 18:13:33 70° E 18:19:25 10° SSE
Cosmos 2251 Rocket 3.5 18:09:32 10° NNW 18:14:56 84° ENE 18:20:13 10° SSE
COSMOS 2441 4.3 18:15:09 10° SSE 18:19:58 70° ENE 18:24:51 10° N
SL-27 R/B 3.5 18:17:51 10° NNW 18:21:24 50° WSW 18:24:54 10° S
Genesis I 4.2 18:19:27 10° N 18:22:48 26° NE 18:23:19 25° ENE
Cosmos 1484 Rocket 2.6 18:23:55 10° SSE 18:27:39 66° ENE 18:31:22 10° N
SL-8 R/B 4.4 18:23:13 10° WSW 18:27:48 45° NNW 18:30:50 20° NE
Meteor 1-13 Rocket 4.3 18:24:27 10° S 18:29:55 55° E 18:35:33 10° NNE
Cosmos 2082 Rocket 2.9 18:25:29 10° N 18:30:28 31° ENE 18:33:41 18° ESE
Cosmos 1833 Rocket 3.5 18:27:19 10° N 18:32:02 27° ENE 18:33:05 25° ENE
NOSS 2-1 (D) 3.7 18:28:55 10° S 18:32:30 40° ESE 18:33:31 33° E
NOSS 2-1 (C) 3.8 18:29:37 10° S 18:33:12 39° ESE 18:34:09 33° E
Cosmos 1743 4.3 18:35:15 19° SE 18:35:15 19° SE 18:36:40 10° SE
Meteor 2-21 4.4 18:28:00 10° N 18:34:10 66° E 18:40:13 10° SSE
COSMO-SKYMED 1 2.7 18:35:11 10° N 18:39:32 78° WNW 18:43:51 10° SSW
Cosmos 1500 3.2 18:38:56 10° N 18:42:47 84° W 18:46:37 10° S
GRACE-2 3.8 18:43:51 10° S 18:46:38 79° W 18:46:42 78° WNW
Nadezhda 3 Rocket 3.9 18:40:45 10° S 18:46:55 87° E 18:53:12 10° N
GRACE-1 3.9 18:44:17 10° S 18:47:03 76° W 18:47:13 72° NW
Meteor 1-28 Rocket 3.0 18:45:29 32° NNE 18:47:10 74° E 18:50:56 10° S
NOSS 2-1 (E) 3.3 18:47:56 10° SSW 18:51:43 60° ESE 18:52:08 56° E
Timation 1 Rocket 4.2 18:45:57 10° SSW 18:51:53 74° ESE 18:55:27 25° NNE
Meteor 2-14 Rocket 4.3 18:50:01 10° N 18:56:11 73° E 19:02:17 10° SSE
GEOS 3 Rocket 3.5 18:53:31 26° SE 18:56:18 61° NE 19:01:20 10° NNW
Meteor 2-4 Rocket 3.6 18:51:38 10° S 18:56:52 53° E 18:58:30 39° NE
Tiangong 1 1.9 18:54:43 10° W 18:57:12 45° WNW 18:57:12 45° WNW
OAO 1 4.5 18:54:07 10° W 18:59:36 82° S 19:01:18 46° ESE
Cosmos 2056 Rocket 3.9 18:56:01 10° S 19:00:49 42° ESE 19:00:49 42° ESE
Cosmos 1025 Rocket 2.9 19:03:14 10° S 19:07:27 73° ESE 19:07:27 73° ESE
ATLAS 3B CENTAUR R/B 3.7 18:54:15 10° WSW 19:12:23 56° S 19:15:57 32° SE
COSMOS 2487 3.1 19:09:28 10° NNW 19:12:59 55° WSW 19:13:00 55° WSW
Cosmos 921 Rocket 3.5 19:09:09 10° SSW 19:13:17 57° WNW 19:14:34 39° NNW
Cosmos 1624 Rocket 3.9 19:09:44 10° S 19:14:32 62° ESE 19:14:32 62° ESE
Meteor 2-16 Rocket 4.4 19:12:46 10° N 19:18:52 80° W 19:24:56 10° S
Cosmos 1371 Rocket 3.9 19:13:53 10° SSW 19:19:14 88° ESE 19:20:09 63° NNE
BREEZE M DEB (TANK) 4.4 19:17:03 10° NW 19:21:32 42° NE 19:21:54 42° NE
NOSS 3-4 (A) 4.4 19:16:42 10° NNW 19:21:59 37° NNE 19:21:59 37° NNE
NOSS 3-4 (C) 4.4 19:16:48 10° NNW 19:22:03 36° NNE 19:22:03 36° NNE
Cosmos 1934 Rocket 4.1 19:41:17 10° NNW 19:47:28 70° W 19:53:42 10° S
Cosmos 2082 Rocket 3.7 20:09:29 10° NW 20:14:28 32° WSW 20:15:50 29° SW
Cosmos 1833 Rocket 4.1 20:10:52 10° NW 20:14:56 34° W 20:14:56 34° W
